Погода в Кураеве

Россия / Республика Мордовия     54°42′40″N   42°38′05″E
темп.,
°C
ветер,
м/с
пор.,
м/с
влажн.,
%
обл.,
%
осадки,
мм/ч
давл.,
гПа
погр.,
м
22 апреля, чт
чт2200:00+5ююз41088100 0.0 1016559
03:00+5ююв3693100 0.1 1016213
06:00+6ююз4992100 0.2 1017514
09:00+7юз3787100 0.3 1018731
12:00+10юз576693 0.1 10191323
15:00+10юз4659100 0.1 10201504
18:00+10ю366456 0.0 1020250
21:00+7ююв477334 0.0 1021109
23 апреля, пт
пт2300:00+5ююв368311 0.0 102189
03:00+5ююв378387 0.0 1021121
06:00+7ююв3108295 0.0 1021219
09:00+11ю5965100 0.0 1021361
12:00+15ю56457 0.0 10201777
15:00+15ю4648100 0.0 10191636
18:00+14ююв365773 0.0 1018183
21:00+9юв410725 0.0 1017165
24 апреля, сб
сб2400:00+7ююв39785 0.0 1016151
03:00+7юв398598 0.2 1014158
06:00+8юв4118492 0.1 1012279
09:00+13ююв6106393 0.1 1010826
12:00+15ю7855100 0.9 10071573
15:00+14ююз6860100 2.7 10051336
18:00+5з6990100 1.9 1006352
21:00+4з61192100 1.9 1008748
25 апреля, вс
вс2500:00+4зюз598784 0.1 1008842
03:00+3юз410943 0.1 1008281
06:00+2зюз512841 0.0 1009411
09:00+6зюз711605 0.0 10101264
12:00+9зюз81049100 0.3 10112160
15:00+9зюз81047100 0.6 10112223
18:00+7зюз710525 0.6 10121157
21:00+4юз51070100 0.6 1013400
26 апреля, пн
пн2600:00+2юз511795 0.3 1014325
03:00+1юз410850 0.3 1014235
06:00+1ююз39840 0.0 1015293
09:00+7юз58607 0.0 10151113
12:00+9зюз6851100 0.5 10141916
15:00+9юз574897 0.8 10131753
18:00+8зюз3550100 0.0 1012213
21:00+5зсз2258100 0.0 101114